Terminal Aerodrome Forecast
Issued by NWS Cleveland, OH

Home | Current Version | Previous Version | Graphics & Text | Print | Product List | Glossary On
Versions: 1 2 3 4 5 6 7 8 9 10 11 12 13 14 15 16 17 18
066
FTUS41 KCLE 301927 AAA
TAFTOL
TAF AMD
KTOL 301927Z 3019/0118 25008KT P6SM SCT009 BKN015
     FM302200 25010KT P6SM SCT010 BKN035
     FM010400 25012KT P6SM BKN020
     FM010600 24015KT P6SM OVC015=

USA.gov is the U.S. government's official web portal to all federal, state and local government web resources and services.